Location: Brompton
(51.4000°N, 0.5333°E)
Time: 09:32:41
(UTC+00:00)

Cosmos 1544 - Pass Details

Date: 11 May 2021
Orbit: 471 x 487 km, 82.5° (Epoch: 12 June)

Event Time Altitude Azimuth Distance (km) Brightness Sun altitude
Rises 21:30:03 0° 355° (N) 2,537 7.8 -13.7°
Reaches altitude 10° 21:32:16 10° 5° (N) 1,656 6.5 -13.9°
Maximum altitude 21:35:38 36° 73° (ENE) 774 3.9 -14.2°
Enters shadow 21:37:08 25° 121° (ESE) 1,014 4.1 -14.3°
